Location: Newark
(56.0692°N, 115.8617°E)
Time: 12:04:46
(UTC+00:00)

Vanguard 2 Rocket - Pass Details

Date: 02 June 2020
Orbit: 556 x 3325 km, 32.9° (Epoch: 14 July)

Event Time Altitude Azimuth Distance (km) Brightness Sun altitude
Rises 09:31:31 0° 241° (WSW) 4,471 11.3 24.3°
Reaches altitude 10° 09:35:02 10° 226° (SW) 3,895 10.8 23.8°
Maximum altitude 09:42:32 22° 181° (S) 3,802 10.1 22.7°
Drops below altitude 10° 09:52:52 10° 140° (SE) 5,550 10.5 21.3°
Sets 09:59:23 0° 129° (SE) 6,955 10.9 20.4°
